sat.trackr.live / text

‹ back to catalog

STARLINK-36111

NORAD 66950 · 2025-286AB

PAYLOAD ACTIVE UNKNOWN

§ Identity

Operator
Country
US
Launch date
2025-12-07
Launch site
AFWTR
Launch vehicle
Mass (kg)
RCS (m²)

Purposes: comms

External: N2YO · Heavens-Above · Gunter

§ Orbital elements

Epoch: 2026-05-25T00:38:07.750176Z

Period
93.85 min
Inclination
53.1594°
Eccentricity
0.0000961
Mean motion
15.34406765 rev/d
Perigee alt
462.0 km
Apogee alt
463.3 km
Semi-major
6,840.8 km
B*
1.1914e-3
RAAN
3.2009°
Arg perigee
62.0138°
Mean anomaly
298.0962°
Rev number
2,711

§ Raw data

STARLINK-361111 66950U 25286AB  26145.02647859  .00040100  00000+0  11914-2 0  99902 66950  53.1594   3.2009 0000961  62.0138 298.0962 15.34406765 27113

JSON: /api/v1/satellites/66950 · /tle

For live sub-satellite position, see the globe view (requires WebGL).

§ Visibility from observer

Set your observer location to see the next 7 days of passes ≥ 10°. The values pass through the URL so the page stays shareable.

No JS? Fill the form by hand. The geolocation button needs JavaScript.